sat.trackr.live / text

‹ back to catalog

GLOBALSTAR M084

NORAD 38040 · 2011-080A

PAYLOAD ACTIVE UNKNOWN

§ Identity

Operator
Country
GLOB
Launch date
2011-12-28
Launch site
TYMSC
Launch vehicle
Mass (kg)
RCS (m²)
4.60

Purposes: comms

External: N2YO · Heavens-Above · Gunter

§ Orbital elements

Epoch: 2026-09-19T21:53:24.956160Z

Period
114.08 min
Inclination
51.9995°
Eccentricity
0.0000564
Mean motion
12.62264074 rev/d
Perigee alt
1,413.2 km
Apogee alt
1,414.1 km
Semi-major
7,791.8 km
B*
-3.0975e-5
RAAN
88.9047°
Arg perigee
75.1929°
Mean anomaly
71.9912°
Rev number
68,072

§ Raw data

GLOBALSTAR M0841 38040U 11080A   26262.91209440 -.00000109  00000+0 -30975-4 0  99912 38040  51.9995  88.9047 0000564  75.1929  71.9912 12.62264074680725

JSON: /api/v1/satellites/38040 · /tle

For live sub-satellite position, see the globe view (requires WebGL).

§ Visibility from observer

Set your observer location to see the next 7 days of passes ≥ 10°. The values pass through the URL so the page stays shareable.

No JS? Fill the form by hand. The geolocation button needs JavaScript.